Park Rapids, MN

11:14 PM CDT on July 23, 2017 (GMT -0500)
Park Rapids Municipal

Weather History for KPKD - June, 2013

Change the Weather History Date:

Friday, June 28, 2013

  Actual Average Record
Temperature  
Mean Temperature 68 °F -  
Max Temperature 75 °F 78 °F 93 °F (1961)
Min Temperature 62 °F 54 °F 40 °F (1993)
Cooling Degree Days 4    
Growing Degree Days 18 (Base 50)    
Moisture  
Dew Point 60 °F    
Average Humidity 82    
Maximum Humidity 94    
Minimum Humidity 57    
Precipitation  
Precipitation 0.25 in - - ()
Sea Level Pressure  
Sea Level Pressure 29.85 in    
Wind  
Wind Speed 13 mph (NW)    
Max Wind Speed 20 mph    
Max Gust Speed 29 mph    
Visibility 9 miles    
Events Rain    
Averages and records for this station are not official NWS values.
T = Trace of Precipitation, MM = Missing Value Source: NWS Daily Summary

Daily Weather History Graph

Daily Weather History Graph

Search for Another Location

Airport or City:

Trip Planner

Search our weather history database for the weather conditions in past years. The results will help you decide how hot, cold, wet, or windy it might be!

Date:

Astronomy

Jun. 28, 2013 Rise Set
Actual Time 5:28 AM CDT 9:18 PM CDT
Civil Twilight 4:48 AM CDT 9:58 PM CDT
Nautical Twilight 3:54 AM CDT 10:52 PM CDT
Astronomical Twilight 2:35 AM CDT 12:11 AM CDT
Moon No Moon Rise 12:01 PM CDT (6/28)
Length of Visible Light 17h 09m
Length of Day
15h 50m
Waning Gibbous, 66% of the Moon is Illuminated
Jun 28
Waning Gibbous
Jun 29
Last Quarter
Jul 8
New
Jul 15
First Quarter
Jul 22
Full

Hourly Weather History & Observations

Time (CDT) Temp. Dew Point Humidity Pressure Visibility Wind Dir Wind Speed Gust Speed Precip Events Conditions
12:53 AM 64.0 °F 59.0 °F 84% 29.81 in 10.0 mi WNW 9.2 mph - N/A   Clear
1:53 AM 64.0 °F 59.0 °F 84% 29.81 in 10.0 mi WNW 12.7 mph - N/A   Clear
2:53 AM 63.0 °F 59.0 °F 87% 29.81 in 10.0 mi WNW 11.5 mph - N/A   Clear
3:53 AM 62.1 °F 57.0 °F 84% 29.81 in 10.0 mi WNW 12.7 mph - N/A   Clear
4:53 AM 62.1 °F 57.0 °F 84% 29.82 in 10.0 mi NW 15.0 mph 20.7 mph N/A   Scattered Clouds
5:01 AM 62.6 °F 57.2 °F 82% 29.83 in 10.0 mi NW 12.7 mph 20.7 mph N/A   Mostly Cloudy
5:50 AM 62.6 °F 57.2 °F 82% 29.83 in 10.0 mi NW 13.8 mph - N/A   Scattered Clouds
5:53 AM 62.1 °F 57.0 °F 84% 29.81 in 10.0 mi NW 16.1 mph - N/A   Scattered Clouds
6:00 AM 62.6 °F 57.2 °F 82% 29.83 in 10.0 mi NW 13.8 mph - N/A   Mostly Cloudy
6:53 AM 63.0 °F 57.0 °F 81% 29.83 in 10.0 mi NW 15.0 mph 23.0 mph N/A   Overcast
7:53 AM 64.0 °F 57.9 °F 80% 29.84 in 10.0 mi NW 15.0 mph 24.2 mph N/A   Overcast
8:53 AM 64.0 °F 59.0 °F 84% 29.85 in 10.0 mi NW 15.0 mph 23.0 mph 0.00 in   Overcast
9:22 AM 64.4 °F 60.8 °F 88% 29.86 in 10.0 mi NW 17.3 mph - N/A   Overcast
9:53 AM 64.0 °F 60.1 °F 87% 29.86 in 10.0 mi NW 15.0 mph - N/A   Overcast
10:40 AM 64.4 °F 60.8 °F 88% 29.86 in 10.0 mi NW 16.1 mph 25.3 mph 0.00 in   Overcast
10:53 AM 64.9 °F 61.0 °F 87% 29.86 in 10.0 mi NW 16.1 mph 23.0 mph 0.00 in   Overcast
11:53 AM 64.9 °F 61.0 °F 87% 29.88 in 9.0 mi NW 11.5 mph 19.6 mph 0.00 in Rain Light Rain
12:39 PM 69.8 °F 60.8 °F 73% 29.88 in 10.0 mi NW 17.3 mph 24.2 mph 0.00 in   Mostly Cloudy
12:53 PM 69.1 °F 60.1 °F 73% 29.87 in 10.0 mi NW 18.4 mph 23.0 mph 0.00 in   Mostly Cloudy
1:31 PM 73.4 °F 60.8 °F 65% 29.87 in 10.0 mi NW 16.1 mph 25.3 mph N/A   Mostly Cloudy
1:53 PM 73.0 °F 59.0 °F 61% 29.85 in 10.0 mi NW 19.6 mph 28.8 mph N/A   Scattered Clouds
2:53 PM 73.0 °F 57.9 °F 59% 29.85 in 10.0 mi NNW 16.1 mph 25.3 mph N/A   Overcast
3:53 PM 75.0 °F 59.0 °F 57% 29.85 in 10.0 mi North 15.0 mph 23.0 mph N/A   Overcast
4:53 PM 68.0 °F 63.0 °F 84% 29.86 in 7.0 mi NNE 12.7 mph 20.7 mph 0.01 in Rain Light Rain
5:08 PM 66.2 °F 62.6 °F 88% 29.87 in 2.5 mi NNW 13.8 mph 23.0 mph 0.08 in Rain Heavy Rain
5:19 PM 64.4 °F 62.6 °F 94% 29.87 in 1.2 mi NNW 10.4 mph 25.3 mph 0.20 in Rain Heavy Rain
5:25 PM 64.4 °F 62.6 °F 94% 29.87 in 3.0 mi NNW 9.2 mph - 0.20 in Rain Light Rain
5:53 PM 68.0 °F 62.1 °F 81% 29.87 in 10.0 mi North 11.5 mph - 0.20 in   Mostly Cloudy
6:53 PM 64.9 °F 62.1 °F 90% 29.88 in 10.0 mi NNW 9.2 mph - 0.04 in Rain Light Rain
7:53 PM 69.1 °F 64.0 °F 84% 29.88 in 10.0 mi North 12.7 mph - 0.00 in   Mostly Cloudy
8:53 PM 64.9 °F 60.1 °F 84% 29.88 in 10.0 mi NNW 11.5 mph - 0.00 in Rain Light Rain
9:53 PM 62.1 °F 60.1 °F 93% 29.88 in 10.0 mi NNW 5.8 mph - 0.00 in   Clear
10:53 PM 63.0 °F 60.1 °F 90% 29.89 in 10.0 mi NNW 11.5 mph - N/A   Clear
11:53 PM 62.1 °F 60.1 °F 93% 29.88 in 10.0 mi NNW 8.1 mph - N/A   Partly Cloudy